Theta_e
332 333 334 334 334 335 336 337 337 337 336 336 337 337 338 337 336 334 336 337 335 334 333 332 330 329 330 330 330 332 333 335 336 339 337 338 337 338 336 335 335 335 335 334 334 334 335 334 333 334 336 336 338 336 334 336 337 337 336 336 334 333 333 336 335 335 331 330 333 332 333 336 335 334 334 334 335 337 336 335 336 336 336 335 335
332 332 332 333 333 334 335 335 335 333 335 336 336 338 337 337 336 335 335 335 335 335 335 334 334 332 332 331 332 332 333 333 334 337 338 339 338 338 336 336 336 335 335 335 336 334 334 334 333 333 335 336 336 335 334 335 335 335 335 333 336 333 332 334 334 333 329 327 326 326 328 331 332 333 334 332 334 336 337 336 334 335 336 338 336
330 329 330 331 332 332 333 334 334 335 335 335 337 337 337 336 336 336 335 336 337 338 336 332 333 334 334 336 334 334 336 337 337 338 339 339 339 340 338 338 337 336 336 335 334 334 334 334 334 336 335 335 334 332 332 332 334 335 335 332 330 333 333 334 334 335 330 330 330 326 322 320 325 329 332 331 332 335 336 336 335 335 334 335 338
328 328 328 329 330 331 331 332 333 334 334 335 336 336 336 336 335 335 335 335 336 336 335 335 334 333 334 336 337 336 335 336 337 338 339 338 338 338 339 338 337 337 336 335 335 334 334 333 335 336 335 336 336 332 332 331 331 331 331 333 333 327 329 331 335 335 333 330 323 324 324 324 320 322 324 330 334 333 333 334 336 335 334 333 336
327 327 327 327 328 329 329 330 332 331 332 333 335 336 336 336 336 336 336 337 338 336 335 333 332 331 332 333 335 335 336 337 335 334 335 334 335 336 337 336 335 336 336 336 335 334 334 334 335 336 336 336 336 334 331 331 330 332 332 332 330 329 327 330 332 332 333 335 330 323 320 318 318 324 325 325 332 331 334 334 333 332 334 334 335
328 327 326 327 327 328 329 330 330 330 331 333 335 337 337 337 337 337 337 337 337 337 336 334 332 330 330 329 328 328 330 331 330 331 333 331 333 337 339 337 335 335 336 336 336 335 334 334 335 335 335 335 334 333 333 332 331 332 333 333 332 334 332 329 328 331 333 333 334 334 330 322 322 324 322 317 328 331 332 331 332 335 336 332 332
327 326 326 326 327 327 328 328 329 329 330 332 334 336 337 337 337 337 336 337 337 336 336 334 332 332 331 331 332 331 331 333 335 337 337 337 336 337 338 339 336 335 335 335 336 335 334 334 334 334 335 334 333 332 332 331 332 332 333 333 333 333 332 327 327 327 331 332 332 332 332 331 330 325 320 323 318 325 330 330 330 333 332 331 331
325 324 324 325 326 327 327 329 329 329 330 332 334 336 335 336 336 337 337 337 338 337 336 334 331 331 331 331 331 332 332 332 333 335 337 337 335 335 337 337 336 335 335 334 334 335 335 334 334 334 334 333 333 332 332 332 333 333 332 333 333 333 332 329 329 329 326 327 331 331 332 332 332 332 329 324 322 319 321 328 331 331 332 331 331
325 325 326 326 326 327 328 329 327 327 328 328 331 333 335 335 336 337 337 337 337 336 335 334 333 332 331 330 329 330 332 333 334 333 333 335 335 335 335 335 336 336 336 335 335 335 335 334 334 334 333 333 333 333 333 333 332 330 330 330 330 331 332 333 332 329 330 330 329 329 330 329 329 331 331 330 324 322 320 322 324 328 331 331 333
321 321 321 322 321 321 322 324 323 323 325 326 327 329 332 334 335 335 335 336 336 336 335 334 333 332 330 329 329 329 330 330 332 332 332 333 333 334 334 334 334 334 334 334 334 335 335 334 334 332 332 332 332 333 332 331 332 331 331 331 332 331 332 334 332 333 332 333 331 328 328 328 327 327 328 328 327 327 321 320 323 323 321 327 332
316 317 318 319 320 321 322 321 321 323 325 326 327 327 328 330 331 333 335 336 336 335 334 333 333 332 331 331 330 330 331 330 329 329 330 330 331 333 334 333 334 333 334 333 334 334 334 334 334 332 331 331 333 332 331 332 333 333 332 332 332 331 331 334 333 335 333 333 331 331 331 329 327 326 327 328 328 324 322 322 323 324 324 322 327
316 316 317 318 319 319 320 320 321 322 324 325 326 326 326 327 328 329 332 334 335 335 333 331 331 331 331 330 329 329 329 328 328 329 330 329 330 330 332 332 332 333 334 333 332 334 333 333 333 333 332 332 332 332 333 333 334 334 334 332 331 333 331 331 332 333 333 332 332 333 334 334 334 331 331 331 328 327 325 323 321 323 324 325 326
316 316 317 318 318 318 319 319 320 321 322 324 325 325 326 327 327 327 328 330 331 330 328 328 328 328 328 329 328 329 329 329 329 330 331 330 330 329 329 329 330 331 332 332 333 332 333 333 333 332 331 332 333 333 333 333 334 334 333 332 331 330 331 332 332 332 332 331 331 334 334 334 333 334 333 331 331 330 328 324 323 324 322 324 327
316 317 317 318 318 319 320 320 320 322 323 324 325 325 326 326 326 326 326 328 328 328 328 327 328 328 330 330 330 328 327 328 329 330 331 331 330 329 329 330 330 330 330 330 333 333 332 333 333 333 332 333 333 332 333 334 333 333 334 332 330 331 333 334 334 335 335 335 336 332 334 333 334 333 334 332 330 329 327 326 323 323 325 321 324
317 317 317 318 319 320 320 320 321 322 323 324 324 325 325 325 326 325 325 327 328 329 330 329 329 331 330 330 330 330 328 328 329 330 330 330 330 329 330 331 331 331 331 332 333 331 331 333 333 333 332 332 332 333 333 334 335 333 333 334 333 333 334 334 336 335 333 333 333 334 334 334 334 333 334 333 332 331 330 329 325 321 321 323 322
314 315 315 316 317 317 317 317 318 318 319 320 322 322 323 323 324 326 326 327 328 328 329 330 330 330 329 328 329 330 329 329 329 330 330 331 329 330 331 332 332 332 332 333 333 331 331 331 333 333 333 333 333 334 334 333 333 331 331 333 332 332 332 332 332 332 333 334 332 332 332 333 335 334 334 333 332 333 333 332 329 326 321 318 321
312 312 313 314 314 315 315 315 315 316 317 318 319 320 321 322 322 323 325 327 328 328 329 329 329 329 329 329 329 329 329 328 328 328 329 330 330 330 331 332 333 332 330 331 331 332 332 333 333 334 334 334 335 335 334 334 334 333 333 334 333 334 333 332 332 332 334 334 332 330 333 335 334 336 334 334 334 334 333 332 331 328 327 322 318
311 311 312 312 313 313 314 314 314 314 316 316 318 320 321 322 322 323 324 325 326 327 327 327 327 327 328 329 329 329 330 330 329 328 328 329 329 330 331 331 331 332 332 332 331 332 333 334 334 334 334 334 335 335 335 334 333 332 331 332 333 334 334 334 333 334 335 336 334 331 334 334 335 335 334 335 335 334 332 332 331 331 330 325 322
309 309 309 310 310 311 312 312 312 313 315 316 317 319 319 320 322 323 323 324 325 326 327 327 328 327 328 328 329 329 330 330 331 329 328 327 328 329 329 330 331 332 330 331 331 331 331 332 333 334 334 334 334 332 333 333 332 330 330 331 332 334 334 334 335 335 336 336 335 335 335 335 335 335 335 335 335 334 333 332 331 332 330 330 326
307 308 309 309 310 311 311 311 311 312 313 314 315 317 317 318 319 320 321 321 322 324 325 325 327 328 328 328 328 328 329 329 330 330 328 327 327 328 328 330 330 331 330 331 332 331 332 332 332 332 332 333 332 332 332 331 329 329 330 332 333 335 335 335 335 335 333 335 335 334 333 334 334 334 334 334 333 333 334 332 332 331 331 331 328
306 307 307 308 309 310 311 311 312 314 314 313 314 314 315 316 317 318 318 318 319 321 323 324 326 327 329 329 329 329 329 329 330 331 330 328 328 327 328 328 330 330 331 331 333 334 334 332 332 332 332 333 332 331 331 330 329 330 333 335 335 335 334 335 335 334 334 335 334 333 333 334 335 334 333 334 333 333 333 333 333 332 330 329 327
304 304 305 306 307 308 309 311 312 312 312 311 312 313 314 315 315 316 317 317 317 318 319 320 324 326 327 327 328 328 328 328 328 329 329 328 327 326 327 328 329 332 333 333 333 333 333 333 332 333 334 334 333 332 332 331 331 331 334 336 335 334 333 334 335 334 335 334 336 334 332 333 334 333 334 332 332 331 331 331 330 330 329 328 330
303 303 304 305 306 306 307 308 309 309 309 310 311 312 313 314 315 315 315 316 317 317 318 319 321 323 324 325 327 327 326 328 329 330 329 328 328 327 329 329 330 331 331 332 333 332 332 332 333 333 333 334 334 334 334 334 333 333 333 334 335 334 333 334 334 334 333 334 334 334 334 334 334 334 334 334 334 332 331 330 330 330 329 330 329
302 303 304 304 305 305 305 305 306 306 307 308 309 310 312 312 312 313 314 315 316 317 318 319 320 321 323 323 324 325 326 328 328 330 329 329 329 328 328 330 330 331 330 331 331 329 329 330 332 332 332 333 333 334 334 335 335 334 333 333 334 334 333 333 333 334 333 334 334 334 334 334 334 333 333 333 332 333 332 331 330 331 331 330 330
303 303 302 303 303 302 302 303 304 304 304 306 307 308 309 310 311 311 312 314 315 317 317 318 320 321 322 322 322 324 325 327 327 328 328 328 328 329 329 329 329 328 328 327 326 325 327 328 330 331 331 332 333 333 333 333 334 335 333 333 333 333 334 333 334 334 333 334 334 333 333 333 333 332 332 331 331 332 330 331 330 329 330 331 330
300 301 301 300 301 301 301 302 302 302 302 304 306 307 308 309 310 310 310 311 314 316 317 318 320 320 321 322 322 323 323 324 326 327 328 328 328 328 328 329 329 327 326 326 324 324 326 326 328 329 330 331 332 332 332 332 332 333 334 334 334 334 333 332 333 333 334 334 334 333 333 332 332 332 331 331 331 331 330 330 330 329 329 330 330
298 299 299 300 300 300 300 300 301 301 302 304 305 305 306 307 307 309 310 311 313 315 317 317 318 319 319 320 321 322 324 325 325 326 328 328 327 328 327 327 328 327 326 325 324 323 323 325 325 328 330 331 331 331 332 332 331 331 332 331 331 331 330 331 331 332 333 333 334 333 333 333 332 332 332 331 331 332 331 330 331 331 329 329 329
298 298 297 297 299 300 300 300 301 301 302 303 304 305 306 306 306 307 309 311 313 314 315 315 316 317 317 318 320 321 323 324 326 327 327 327 327 327 327 328 327 326 326 326 325 324 323 324 324 325 326 329 329 329 329 330 330 330 329 329 329 329 328 329 330 330 331 332 332 333 333 331 331 331 332 332 331 329 328 329 329 330 329 328 328
297 297 297 297 297 298 299 300 301 301 301 302 303 305 306 306 307 307 308 309 312 313 313 314 315 315 315 317 319 322 322 323 324 325 326 326 326 326 326 327 327 327 326 324 324 324 323 322 322 323 322 324 326 327 328 328 327 327 328 327 327 327 328 327 327 327 328 328 328 329 328 329 326 319 312 315 316 319 327 326 325 326 327 327 327
296 296 296 296 297 298 298 299 300 300 300 301 302 303 304 305 305 306 306 308 310 312 312 312 313 314 315 316 317 320 322 323 323 323 324 324 325 325 325 325 325 326 325 323 320 321 322 322 322 321 322 323 322 321 312 309 316 326 327 326 327 327 327 327 326 326 326 326 326 324 320 314 311 309 305 301 300 303 308 322 326 327 326 326 326
295 295 295 296 297 297 298 298 299 300 300 300 301 303 304 303 304 304 306 308 310 310 312 311 311 313 314 315 316 318 321 321 321 321 322 321 322 323 322 322 322 322 323 321 320 318 318 319 320 321 321 320 319 311 298 295 302 309 324 327 326 326 327 327 327 326 324 323 323 321 320 316 314 310 306 298 297 297 297 296 296 300 308 326 325
294 295 295 296 296 296 296 297 299 300 300 300 301 302 302 301 302 303 306 308 309 309 310 311 311 311 313 315 316 317 318 319 319 319 318 318 317 318 318 318 319 319 317 318 317 314 315 317 319 319 319 318 315 300 294 296 301 305 313 327 327 326 326 327 326 325 323 323 323 324 325 326 324 321 318 313 304 297 296 295 295 295 295 293 295
294 294 295 295 296 296 296 297 298 299 299 300 301 301 301 301 302 304 306 307 307 307 308 309 310 310 312 314 314 315 316 317 317 317 317 316 315 315 315 315 314 314 313 311 311 313 314 317 318 317 316 315 313 296 296 297 299 301 306 317 326 326 326 326 325 324 323 323 323 323 323 323 321 320 322 321 317 310 299 297 299 299 298 297 294
294 295 295 295 296 296 297 298 299 300 300 301 302 301 302 303 303 304 305 305 305 305 307 308 309 309 310 312 313 313 314 314 314 314 314 313 312 311 311 311 310 310 310 310 311 311 313 315 316 315 314 313 310 298 296 298 299 300 304 313 326 326 326 326 325 325 325 325 325 324 322 320 321 321 324 326 325 322 320 322 323 322 319 311 302
294 294 295 295 296 297 298 298 299 300 301 301 301 302 302 303 303 303 304 305 306 306 305 306 307 307 309 310 312 312 311 310 310 309 309 309 309 308 307 307 306 306 305 306 306 306 306 308 311 314 314 312 307 294 295 295 297 301 304 311 326 326 325 325 325 326 325 325 325 325 324 321 320 319 316 315 327 327 326 325 324 322 321 319 318
294 294 295 296 296 296 296 297 300 300 300 301 301 302 302 302 303 302 302 303 304 304 304 305 304 305 307 309 311 310 309 308 307 307 306 304 304 304 305 305 304 304 304 305 306 306 304 305 306 308 310 310 307 293 294 295 297 300 306 323 324 324 322 321 320 320 321 321 322 322 321 320 319 317 303 295 308 326 325 324 322 321 320 316 311
295 295 296 297 297 297 298 298 299 300 300 301 301 301 301 301 301 301 301 302 303 301 301 302 302 303 305 307 309 309 308 306 305 304 304 304 303 302 303 304 302 302 302 302 301 302 303 304 305 305 306 305 305 297 294 295 297 301 310 320 319 318 318 317 316 316 314 314 314 315 318 319 319 317 302 295 298 310 324 322 321 320 319 318 315
296 297 297 298 298 298 299 298 298 299 299 300 301 300 300 300 300 300 300 301 301 300 300 300 300 303 304 305 308 308 307 305 304 303 303 304 304 303 302 303 302 300 300 300 300 300 300 300 300 301 303 304 303 297 294 296 298 299 305 313 311 310 307 305 306 306 307 306 305 304 308 313 313 307 294 297 298 314 320 319 318 318 318 316 314
297 297 297 297 297 298 298 298 298 297 298 300 300 301 300 299 299 299 299 300 299 299 299 298 299 301 303 304 305 306 306 304 302 302 302 302 302 302 302 303 302 301 300 300 300 298 297 298 298 298 300 300 300 298 293 294 296 299 309 315 312 309 305 302 302 303 304 305 303 300 296 298 302 297 291 294 299 313 320 316 314 313 311 310 308
297 297 297 298 298 298 297 297 297 297 299 299 299 299 299 298 299 299 298 298 298 298 299 301 301 301 303 303 304 304 304 303 302 302 302 302 302 302 302 301 301 300 299 299 298 297 296 296 297 297 296 297 298 297 294 292 294 295 300 310 309 307 303 304 306 307 306 306 305 303 298 290 290 291 292 292 294 300 314 316 316 314 311 306 309
296 296 297 297 297 297 296 297 297 298 298 298 298 297 296 297 298 298 297 297 299 299 300 301 302 302 302 303 303 303 303 303 303 302 302 301 301 301 301 301 301 300 299 298 297 297 296 295 296 296 296 296 296 296 294 291 292 293 295 301 308 307 306 306 305 305 307 307 305 302 299 291 290 290 291 292 293 295 301 314 314 311 307 303 304
297 297 297 297 296 297 297 297 298 298 298 297 296 295 295 296 296 296 297 298 299 299 300 300 301 301 301 301 302 302 303 303 303 302 301 301 301 300 300 300 300 299 298 298 297 297 296 295 296 296 296 295 296 295 296 292 291 292 292 295 302 303 304 305 303 303 302 302 302 300 297 291 289 290 290 291 292 293 295 305 299 291 291 295 306
296 296 296 296 295 295 295 296 297 297 298 298 297 295 295 294 294 295 298 299 299 299 299 299 299 300 300 300 300 301 301 301 301 301 300 299 300 299 299 300 299 298 297 297 297 297 297 296 296 296 296 296 296 295 292 293 291 291 291 291 292 296 294 303 302 299 298 298 299 297 294 290 289 289 290 291 292 293 297 297 289 291 292 294 300
295 295 295 296 296 296 296 296 297 297 298 298 297 295 295 294 294 296 298 299 299 298 298 297 297 297 298 299 300 300 300 299 300 300 299 299 299 299 298 298 298 297 296 296 296 296 296 295 295 295 297 297 297 296 294 291 292 290 290 290 290 291 293 298 299 298 298 298 297 296 292 290 290 290 289 290 290 292 295 290 291 291 293 298 306
295 295 296 296 296 296 296 296 296 297 297 297 297 296 295 295 296 298 297 298 298 298 297 295 295 296 298 298 299 299 298 298 297 298 298 298 298 299 298 298 297 296 296 295 295 295 295 295 295 294 295 296 296 296 296 293 291 291 290 290 290 290 290 292 297 297 296 295 291 290 290 290 290 291 291 292 292 291 289 290 291 294 301 307 306
295 295 295 296 297 297 297 296 296 297 297 298 298 298 296 296 297 298 298 298 297 297 296 295 294 294 295 296 296 297 297 297 296 296 296 297 297 298 298 298 298 297 296 296 295 296 296 295 295 296 296 296 296 296 295 295 294 294 293 290 290 290 291 291 292 292 290 289 289 290 290 291 292 295 302 301 299 296 291 292 293 297 306 305 305
294 295 296 297 296 295 295 295 295 296 297 297 298 298 298 298 298 298 297 297 296 296 296 296 294 294 294 294 294 295 295 296 297 296 296 295 295 296 295 294 296 296 295 295 295 295 295 296 296 296 297 297 297 296 295 294 294 295 296 296 296 296 293 293 296 296 294 295 294 293 292 290 291 290 291 291 293 294 297 299 300 300 301 301 302
295 295 295 294 294 294 294 294 294 295 296 296 297 297 298 299 298 298 297 296 295 295 295 295 295 295 294 294 294 290 292 294 295 295 295 295 294 294 293 292 292 293 295 294 294 293 293 294 294 295 295 296 296 295 294 292 293 294 295 295 296 296 296 296 296 296 296 297 296 292 294 297 297 298 298 299 297 296 295 295 298 299 298 297 295
295 294 294 293 293 293 294 294 294 295 296 296 296 297 298 298 299 299 299 297 296 295 296 296 296 295 294 294 294 294 294 294 295 295 294 294 294 294 294 294 293 293 293 294 294 293 293 294 294 294 295 295 294 293 292 289 290 288 291 297 297 296 295 294 293 291 295 296 296 295 294 295 295 292 292 294 295 295 293 294 296 297 297 298 299
293 293 293 294 294 294 294 294 294 296 296 295 295 296 297 298 298 299 299 298 297 296 296 296 296 296 296 295 295 294 294 293 293 293 294 293 288 289 291 294 293 289 288 288 289 290 291 292 294 293 293 293 295 293 288 288 288 288 288 288 289 289 289 292 290 289 293 292 290 291 291 291 290 292 292 291 291 292 291 292 291 291 294 296 297
294 294 294 295 295 296 296 295 295 296 296 296 295 296 297 298 298 299 299 299 299 297 296 296 296 295 293 295 295 295 294 293 293 293 293 292 293 292 288 288 289 289 289 288 288 288 288 288 291 292 291 287 287 287 288 288 288 288 288 288 288 288 288 288 289 291 290 290 290 289 289 289 290 291 290 291 290 291 292 292 293 292 294 294 294
Wind_Speed
5 6 6 6 6 5 5 4 5 5 5 4 4 5 5 5 5 6 6 7 7 7 6 5 5 5 5 8 8 7 6 5 5 5 6 6 8 8 8 7 8 7 7 7 8 7 5 4 5 6 6 7 6 7 8 8 9 9 8 8 10 9 7 7 8 7 9 5 5 5 5 4 4 5 4 4 4 3 3 4 4 4 4 4 4
5 7 7 7 6 6 6 5 5 5 4 4 4 4 5 5 6 6 5 6 6 7 6 7 7 7 6 7 7 7 7 7 7 7 8 7 8 8 8 8 9 9 8 8 8 7 6 5 5 5 5 5 6 7 7 7 8 9 9 8 7 9 8 9 9 9 6 8 7 6 4 3 3 4 5 5 4 4 4 4 4 4 3 2 3
6 7 7 8 8 7 6 5 4 3 3 3 3 5 6 6 6 7 7 8 8 7 6 5 5 6 6 5 7 6 8 9 9 9 8 8 8 8 9 8 8 8 9 8 8 9 8 7 7 6 6 7 7 8 8 9 9 9 11 10 8 6 6 9 11 9 6 7 7 6 5 4 2 3 2 5 6 5 5 4 4 4 3 3 3
5 6 7 8 8 7 7 5 5 4 2 3 5 6 6 6 6 6 7 7 6 6 6 5 4 5 5 6 6 7 6 8 9 8 7 8 7 7 7 8 8 8 9 9 6 6 6 7 6 6 7 8 8 9 9 10 8 6 3 5 9 9 7 8 8 7 5 9 8 5 5 5 4 5 5 4 4 4 5 5 4 4 3 3 4
5 8 7 7 7 7 7 5 5 3 3 2 5 5 4 5 7 8 7 6 6 6 6 3 3 4 3 3 4 5 5 6 7 7 7 7 8 8 9 10 10 9 9 10 8 7 7 7 7 8 7 8 7 8 9 9 9 7 7 6 6 9 8 7 8 7 7 6 5 6 4 5 6 4 8 4 5 5 5 5 5 4 4 3 4
6 8 8 8 8 7 6 5 4 2 1 1 2 4 6 6 6 7 6 5 6 7 7 5 5 5 5 6 5 6 7 6 8 8 8 10 9 8 9 9 9 9 9 9 9 7 8 9 8 7 9 8 7 6 8 8 8 8 8 6 7 5 8 7 8 7 7 5 2 2 0 1 6 6 7 5 5 5 5 5 5 5 4 4 3
9 9 8 7 7 6 4 3 2 2 1 1 3 5 7 7 7 7 6 5 5 5 6 6 6 5 6 7 8 8 7 5 6 7 7 6 7 8 8 8 8 9 9 9 9 8 8 8 8 9 7 7 7 8 8 8 7 7 7 9 6 6 8 9 10 10 7 5 3 1 1 1 2 8 7 5 7 5 4 5 5 5 4 3 2
8 9 8 7 6 5 4 2 2 2 2 3 5 6 7 8 7 7 6 5 4 6 8 7 6 6 6 7 8 8 8 7 5 6 6 5 7 8 7 7 8 9 9 9 9 10 10 9 8 10 9 9 8 8 7 7 7 6 7 6 6 6 8 8 10 9 11 10 8 5 2 1 6 3 4 5 4 7 6 4 3 4 3 4 4
7 8 8 7 6 5 4 3 4 5 5 5 6 7 7 7 7 7 7 6 4 6 6 6 6 5 5 6 7 7 7 6 5 5 5 7 8 7 7 7 8 9 9 10 10 11 10 9 10 9 8 8 8 7 7 8 8 8 8 6 7 7 7 5 7 9 9 9 9 6 4 4 6 2 4 3 4 5 5 7 5 3 2 4 3
9 10 9 9 8 7 6 6 7 6 6 6 6 6 7 8 8 8 8 7 6 4 6 6 5 5 5 7 9 8 6 6 6 6 7 7 8 9 8 8 8 8 8 9 9 9 9 9 10 10 8 7 6 8 7 8 9 7 10 11 11 10 8 6 8 9 9 8 9 7 7 6 5 4 4 5 2 2 3 6 6 7 6 4 4
9 10 10 10 9 7 7 8 7 7 6 8 8 8 7 8 8 9 9 8 6 5 5 6 6 6 7 8 9 10 9 7 7 8 7 9 10 10 8 9 8 8 8 8 10 10 9 10 9 8 5 7 8 7 7 8 9 9 11 11 10 10 7 7 9 8 8 8 9 8 7 8 7 6 6 5 4 4 4 5 5 6 5 6 4
9 9 10 9 9 9 8 8 8 8 8 9 9 9 8 7 7 8 9 8 9 8 7 6 6 6 7 8 9 9 9 7 8 10 9 9 7 8 8 8 9 8 7 7 8 8 8 7 7 8 9 9 8 6 6 7 7 9 10 10 12 11 9 9 9 8 10 8 10 7 7 6 4 3 4 4 4 3 4 4 5 6 5 4 5
9 9 8 9 9 9 9 9 8 9 8 9 10 9 8 7 7 8 8 9 8 7 6 5 4 4 4 5 7 7 8 9 8 9 7 6 5 7 8 8 7 7 7 7 7 9 7 8 8 8 8 8 6 6 8 7 7 9 10 11 9 10 10 11 9 10 11 9 10 8 7 6 5 2 2 3 2 3 3 4 4 6 4 5 4
9 9 9 9 9 9 9 9 8 8 8 8 8 9 9 8 8 7 7 6 5 4 6 6 6 6 5 5 6 6 7 7 8 8 6 5 5 8 8 8 7 7 6 9 7 9 9 8 8 7 7 6 6 6 7 9 10 10 9 10 12 11 10 12 10 10 9 9 7 7 6 6 5 3 3 3 4 5 5 5 6 5 4 4 3
9 10 9 9 10 10 9 10 9 10 11 10 9 9 9 8 7 7 6 6 6 6 6 7 7 7 6 5 5 3 4 6 6 7 7 6 5 8 9 8 7 5 7 8 7 9 8 7 8 9 9 9 8 8 8 9 8 7 6 6 8 7 8 8 6 6 8 10 7 6 6 6 5 5 4 4 5 5 5 6 6 7 5 4 4
8 9 10 11 10 10 9 9 9 8 9 8 10 9 8 8 8 7 6 6 6 7 8 8 8 8 7 6 5 4 4 5 5 5 6 5 7 8 9 7 6 6 7 6 10 10 8 10 10 11 10 8 10 11 10 8 7 7 6 8 9 7 7 9 7 8 8 8 10 7 7 6 5 5 5 4 5 4 4 5 5 5 6 6 4
8 9 9 11 10 10 8 9 8 8 9 9 9 8 9 8 7 7 8 8 8 8 8 8 8 9 8 4 4 4 4 5 6 7 9 9 8 7 8 6 7 7 6 7 9 10 9 10 10 10 10 10 10 9 8 7 7 7 7 7 7 7 8 9 8 7 8 8 6 5 6 5 5 4 4 4 4 4 5 5 6 5 4 4 5
9 9 10 10 9 10 9 9 9 9 9 9 9 8 7 7 8 9 9 9 9 9 8 8 8 9 7 6 4 5 7 8 9 10 9 8 6 5 5 5 6 6 6 6 8 9 8 9 9 9 9 9 8 7 8 7 6 5 3 4 5 6 6 6 7 8 7 7 8 9 7 5 5 5 5 5 5 5 5 6 6 4 4 4 3
8 8 8 8 8 8 8 8 9 8 7 8 8 7 7 8 9 9 10 9 9 8 9 8 8 6 6 6 6 6 6 8 10 11 9 8 7 5 4 6 8 6 4 4 5 5 4 6 7 8 8 8 8 8 8 7 8 7 8 7 7 7 7 7 7 6 5 6 7 7 6 5 5 6 5 5 5 5 6 6 5 4 4 3 3
6 7 8 8 8 9 9 8 8 9 8 8 8 8 11 10 9 10 9 9 9 9 9 9 9 7 7 6 5 6 6 6 8 10 10 10 8 7 5 4 7 7 5 3 5 7 8 8 8 8 8 9 9 7 7 8 8 7 7 7 6 8 7 6 5 5 4 6 7 7 6 5 5 5 5 5 5 5 5 5 5 5 4 3 3
6 7 6 8 8 9 9 8 8 8 8 8 8 9 9 10 11 10 10 10 10 10 9 8 8 8 7 7 5 4 5 5 7 8 9 11 9 8 8 7 7 8 8 9 9 9 9 9 8 8 8 10 10 9 7 6 5 6 6 6 6 6 7 6 5 6 5 6 6 6 6 6 6 6 5 5 5 6 6 5 5 5 5 5 4
6 7 8 7 8 8 8 7 8 8 10 10 9 9 9 12 11 10 10 10 10 10 9 9 8 9 8 6 5 4 4 4 3 6 9 8 9 7 7 8 10 11 9 10 10 9 8 8 7 8 8 9 10 10 7 6 7 8 8 5 6 7 7 7 6 6 5 4 5 6 6 6 6 6 6 6 6 6 6 6 6 6 6 6 5
7 8 7 7 8 8 8 9 9 9 9 10 9 9 8 10 12 11 11 12 11 10 10 9 8 8 8 6 4 4 4 2 4 7 8 8 7 6 4 5 8 7 8 8 8 6 7 8 8 7 8 8 9 11 10 10 10 10 8 6 6 7 7 7 7 7 6 5 5 5 6 6 4 5 6 5 5 6 6 6 7 6 6 6 6
8 7 7 8 8 8 9 10 10 9 9 9 9 9 9 8 10 10 11 12 11 10 10 10 8 8 8 6 5 5 4 5 6 5 7 6 6 7 6 7 6 5 6 5 1 1 2 5 7 8 8 7 8 8 8 8 8 8 8 8 7 6 7 7 7 6 6 6 6 6 5 6 6 6 6 5 6 6 6 5 6 6 5 6 5
9 10 10 10 11 11 10 9 9 9 9 8 9 10 10 10 10 11 10 10 10 10 10 10 9 9 9 7 5 5 5 7 6 5 5 5 6 7 8 10 9 7 5 4 4 3 2 4 5 7 7 7 7 8 8 7 6 6 7 7 7 6 6 6 5 5 5 6 6 6 6 6 6 6 6 6 6 7 6 5 6 5 5 5 5
9 9 10 11 10 10 11 11 9 9 8 9 9 10 10 10 11 10 10 10 11 11 11 11 10 9 10 10 7 4 4 5 6 5 5 4 5 6 7 6 7 7 7 6 7 6 5 6 5 5 6 6 6 7 8 8 7 6 5 5 5 5 5 4 4 4 5 5 5 5 7 7 7 7 7 6 6 7 6 6 6 6 6 5 5
8 8 9 9 10 11 10 9 9 9 9 8 9 10 9 10 11 11 10 10 11 12 11 10 10 9 9 9 8 7 5 6 5 5 4 4 5 5 6 7 7 6 7 7 7 7 6 6 2 2 5 6 6 6 6 6 7 6 6 6 5 5 5 4 4 4 4 4 4 5 6 6 6 6 6 7 6 6 5 6 5 4 4 4 5
7 10 11 10 9 9 10 9 9 9 9 9 8 9 9 9 10 10 11 10 10 11 11 10 10 10 10 9 8 6 6 6 6 5 4 4 4 5 6 6 7 6 6 7 6 6 5 4 2 2 3 3 5 5 5 5 6 6 6 6 6 6 6 5 5 5 5 4 4 4 4 3 2 2 3 4 5 4 3 4 3 4 4 5 5
9 10 9 10 9 9 9 9 9 10 10 10 9 9 9 9 9 10 10 10 9 10 11 11 11 11 10 9 8 7 6 6 5 4 4 4 4 4 5 6 6 5 5 6 7 5 2 5 4 3 4 3 3 4 4 5 6 5 5 6 6 6 6 6 6 6 5 5 4 4 3 3 4 6 7 6 5 3 4 4 3 5 5 5 5
9 9 8 8 8 8 8 9 9 10 10 10 9 9 9 10 10 10 10 10 9 10 12 12 12 11 11 10 9 7 7 6 4 2 2 3 3 3 4 5 6 5 6 6 6 6 3 5 5 4 4 3 3 2 3 1 5 6 6 5 5 6 6 7 7 7 6 6 6 6 7 11 9 8 9 9 9 8 8 4 4 6 6 5 4
7 8 8 7 8 9 9 10 10 10 10 9 8 8 9 10 9 10 10 10 10 10 12 12 12 11 11 12 10 9 7 6 5 4 4 3 4 5 4 4 4 4 5 6 5 6 5 4 4 5 5 4 3 4 7 2 5 8 7 7 7 6 7 7 8 8 8 7 7 8 8 9 9 9 9 12 11 12 12 12 11 11 8 2 4
7 7 7 9 9 9 9 9 9 10 9 9 9 8 9 9 9 10 10 10 10 10 11 13 13 12 12 12 11 10 8 8 7 6 4 5 7 4 4 4 5 6 6 6 6 7 6 4 5 6 6 4 4 7 4 2 7 7 6 7 7 7 7 7 8 8 8 7 8 7 6 5 5 7 8 9 11 12 13 14 14 13 12 12 10
6 7 8 8 7 7 7 8 8 8 8 9 9 8 9 9 9 9 9 10 10 10 10 12 13 13 12 12 11 11 10 10 9 6 6 6 6 6 5 6 8 6 6 8 7 6 6 5 6 7 6 5 5 8 5 2 6 9 8 8 6 7 7 8 8 9 8 7 6 6 5 4 4 5 7 8 9 9 11 14 14 14 13 12 10
5 6 6 5 5 5 6 7 7 7 7 7 8 8 8 7 8 9 10 10 10 10 11 11 13 14 13 12 11 11 11 11 9 7 7 7 8 8 7 6 6 7 8 7 8 7 5 6 6 7 7 7 7 7 8 8 5 6 9 6 7 7 7 8 9 8 7 7 6 6 6 5 4 3 4 7 8 9 8 7 7 7 8 8 9
6 6 6 5 5 5 7 8 8 8 8 8 10 9 8 9 9 10 10 10 11 11 12 13 13 13 12 13 13 12 12 11 10 9 8 9 8 6 7 6 6 8 8 8 8 8 7 7 7 6 8 9 7 9 9 9 9 6 4 8 7 7 7 7 6 6 6 5 5 5 6 6 5 4 2 2 5 6 7 7 7 7 7 7 7
4 4 5 6 6 6 6 7 7 7 7 8 8 8 9 9 9 10 10 10 11 12 12 13 13 14 14 14 13 12 11 11 10 10 10 9 8 8 7 5 9 9 8 9 10 8 8 9 8 8 8 11 9 12 8 9 9 8 5 5 6 6 7 7 7 7 6 5 4 4 4 5 5 5 3 1 2 4 7 7 7 7 8 8 8
4 4 4 5 5 5 6 5 6 7 8 9 8 8 8 9 10 10 10 10 11 12 12 12 13 13 13 13 13 12 12 11 11 11 12 12 10 8 7 5 8 9 9 9 10 8 7 9 10 9 9 8 8 11 11 12 12 10 7 7 7 7 7 8 7 6 5 6 6 5 4 4 4 4 2 4 5 3 6 7 8 8 7 7 7
3 4 4 5 5 5 6 6 7 9 9 8 8 7 7 9 10 10 11 11 12 12 11 11 11 12 12 11 12 12 11 12 12 11 12 11 11 9 9 7 6 10 11 9 9 8 9 9 10 11 10 9 9 11 12 14 16 16 12 10 8 8 8 7 7 7 7 8 11 16 10 5 5 3 4 4 6 6 6 7 7 8 8 8 6
5 5 6 7 7 6 6 6 7 10 9 8 8 8 7 9 9 10 10 11 12 11 11 10 10 9 12 12 12 11 12 12 12 11 10 11 11 11 9 9 8 8 10 7 9 9 10 11 10 10 15 12 10 11 14 11 13 12 9 6 7 7 7 6 6 7 6 5 6 10 13 9 6 5 7 8 5 3 6 6 5 7 7 7 4
5 6 5 4 5 7 9 10 10 8 8 8 8 7 9 10 9 9 11 12 11 10 9 9 9 9 11 13 12 12 12 12 12 11 10 11 10 10 11 11 10 9 9 9 8 10 13 10 10 11 11 11 11 10 12 14 13 12 9 6 3 7 7 5 4 5 6 5 5 5 7 10 9 10 11 10 10 9 7 5 5 6 7 6 4
6 5 4 5 6 6 6 7 6 7 8 7 6 7 10 10 9 10 12 10 9 8 9 9 9 10 11 13 12 12 12 11 11 11 10 11 11 11 11 11 11 11 11 10 10 11 12 11 11 10 10 12 12 11 11 15 14 14 13 9 5 6 5 5 5 5 4 5 4 5 4 9 11 10 9 10 11 10 8 6 6 5 4 5 3
6 6 6 5 6 7 8 9 9 8 7 7 7 9 9 9 10 11 10 7 7 8 8 9 11 11 11 11 12 12 11 9 9 9 11 11 9 9 11 12 11 11 12 11 11 11 11 10 9 9 11 10 12 15 9 13 16 17 16 15 8 6 5 6 7 5 6 6 6 5 5 7 9 10 11 11 11 11 11 8 7 9 8 6 5
7 8 7 6 7 7 8 8 7 8 7 6 8 10 9 8 11 9 7 7 7 8 9 10 11 11 11 11 11 13 11 8 9 10 10 10 9 9 9 8 9 10 11 12 13 10 9 9 9 8 8 9 9 10 15 11 16 16 16 15 13 8 8 7 7 7 6 5 5 5 5 8 9 10 11 11 11 11 11 7 8 8 8 6 4
6 6 4 5 7 7 8 8 8 8 7 8 8 9 9 10 9 6 7 7 8 8 9 10 10 11 10 10 10 11 11 9 9 8 10 10 9 8 9 9 9 9 10 10 9 7 9 9 9 9 9 9 10 8 11 16 13 15 13 13 13 12 11 8 7 6 4 4 4 5 6 7 10 11 13 14 14 12 8 9 8 7 5 4 6
6 5 4 6 8 8 8 9 8 8 7 7 7 8 10 11 7 6 6 7 8 9 9 10 9 9 10 9 10 10 11 10 9 9 9 8 8 7 8 7 7 9 9 9 8 8 9 7 8 7 6 6 7 8 8 11 14 14 14 12 11 11 10 8 7 5 4 5 7 9 8 7 8 9 12 13 12 11 10 9 8 5 3 5 5
5 5 6 6 7 8 9 9 9 8 7 7 7 8 9 7 6 6 6 7 8 9 10 10 9 9 9 9 9 10 11 10 10 8 8 8 10 8 7 6 7 7 6 7 7 6 6 6 6 5 5 5 6 6 7 7 8 8 9 11 11 11 12 12 11 8 8 9 9 9 9 8 8 6 6 6 6 7 9 11 11 9 5 5 4
7 5 5 7 7 8 8 9 9 8 7 7 7 8 7 7 7 7 7 8 8 9 9 9 9 8 9 9 10 8 7 9 9 8 8 7 7 7 7 7 7 6 6 6 6 5 5 5 5 5 5 5 5 4 5 5 6 5 4 4 5 6 7 8 7 5 6 6 7 6 7 9 9 11 10 7 6 4 6 7 6 6 5 5 4
6 5 6 7 7 8 8 8 8 7 7 7 8 8 8 7 7 6 7 8 9 9 8 9 10 9 8 7 7 9 9 7 8 8 8 7 7 6 7 8 8 7 6 6 5 5 5 4 4 3 3 4 4 4 5 5 5 4 2 3 3 4 5 4 6 5 5 3 4 5 6 4 4 5 4 4 5 5 5 5 5 5 5 4 5
6 6 6 5 6 7 7 8 7 6 7 7 8 7 8 8 7 7 7 8 7 8 8 9 8 8 8 7 7 8 7 7 8 9 9 8 7 7 6 7 8 6 6 5 5 5 5 3 2 2 3 3 4 4 5 4 3 3 1 1 2 3 2 4 5 5 4 3 4 5 4 4 4 3 3 4 4 5 4 5 5 3 3 2 2
4 3 5 6 6 6 7 8 7 7 7 8 8 7 7 7 6 6 6 7 7 7 8 8 7 7 6 6 6 7 7 7 7 7 7 8 11 13 9 7 7 10 14 13 9 6 4 4 3 2 4 3 2 3 2 5 7 7 8 9 7 7 7 5 6 7 5 4 3 3 3 3 2 2 3 3 2 2 2 3 3 3 3 4 5
4 6 7 7 6 8 9 9 7 7 7 7 8 7 7 7 6 6 6 7 7 7 7 6 6 7 6 6 6 6 6 6 5 5 5 5 6 8 12 13 11 11 12 12 11 10 11 10 6 3 4 8 5 5 8 9 9 9 9 8 8 6 5 5 2 2 4 3 2 4 2 2 2 4 3 2 2 2 2 2 2 3 4 5 4
Wind_Direction
101 97 99 101 107 104 107 113 117 116 123 139 170 205 211 206 190 188 184 185 193 204 198 168 161 169 181 180 191 213 211 211 228 221 220 201 198 204 201 195 194 183 177 172 192 206 185 177 213 207 211 213 194 182 173 177 176 164 162 162 156 149 149 153 155 152 144 122 127 138 143 152 152 154 163 182 196 202 211 209 202 197 176 181 179
112 99 103 103 100 99 99 107 117 124 129 149 174 193 206 197 192 178 185 186 208 217 206 183 187 196 195 198 199 199 200 203 213 217 215 205 202 207 207 198 194 191 191 195 200 192 171 174 202 219 213 211 196 163 155 160 169 167 162 160 166 159 157 165 158 153 156 163 161 150 135 133 149 168 181 182 189 201 201 213 216 213 180 185 202
90 92 101 103 100 95 95 102 101 71 120 155 183 196 200 205 206 196 199 201 208 211 205 210 207 208 215 209 202 200 210 211 209 209 206 209 218 216 218 214 202 191 193 197 208 198 183 174 194 203 199 207 184 165 160 154 169 179 174 163 158 160 154 171 169 185 163 166 157 147 160 151 155 168 181 172 196 197 194 203 214 217 201 197 203
102 99 99 101 94 86 84 87 90 78 111 168 185 205 197 198 198 204 204 208 210 216 216 218 203 203 216 230 218 216 219 218 220 211 208 200 208 215 220 219 211 193 190 202 204 198 172 176 178 193 201 203 192 173 171 168 168 159 159 173 153 155 164 175 184 189 180 156 164 189 156 191 183 202 175 167 172 177 190 197 200 214 190 200 190
126 113 110 107 99 87 85 82 97 85 80 164 188 205 210 216 214 203 201 208 216 204 205 180 176 181 195 225 240 230 240 226 218 213 191 188 200 207 215 209 207 203 197 198 202 202 194 188 193 196 194 203 193 179 175 174 174 166 160 160 174 156 166 172 180 185 206 193 170 150 160 203 223 166 182 177 178 187 189 196 201 201 194 182 183
126 114 105 104 106 102 92 88 81 96 116 1 238 223 245 248 231 229 229 227 215 205 205 182 197 203 200 213 217 222 234 230 230 227 210 207 208 211 214 206 204 204 203 199 201 197 200 201 190 192 195 195 187 185 179 172 165 171 171 171 192 176 158 164 178 192 208 192 259 337 350 208 194 175 184 189 191 207 191 194 191 183 204 203 197
101 97 96 99 103 98 83 75 57 19 349 271 270 258 254 259 248 235 233 225 223 215 200 201 214 220 232 243 250 252 257 255 268 266 248 227 228 223 221 214 213 208 204 204 202 196 193 194 191 190 184 186 181 179 184 177 168 170 182 196 185 157 157 169 183 183 195 200 211 208 357 10 204 161 194 164 177 184 203 184 194 190 189 182 178
113 100 96 87 83 84 81 77 57 11 253 254 257 266 267 266 265 255 247 245 227 210 202 196 210 220 229 247 258 266 271 280 274 260 265 251 242 241 239 235 228 224 214 205 202 201 195 190 188 193 186 186 187 192 178 164 144 171 179 192 184 166 177 184 187 183 190 191 192 192 182 165 184 187 200 188 178 174 182 204 202 185 176 185 199
127 130 115 101 89 65 51 53 33 15 356 334 316 302 296 289 276 271 264 254 235 228 223 215 223 224 226 239 250 251 264 268 258 240 240 246 251 250 245 241 234 224 214 204 202 201 185 185 182 185 188 186 193 186 176 163 156 160 176 186 194 195 195 188 176 194 197 190 182 185 172 161 170 177 172 199 182 160 162 185 177 153 181 171 189
50 48 54 65 54 46 42 42 29 12 345 335 322 313 304 295 284 277 277 279 280 272 261 255 240 238 233 236 243 248 241 244 243 244 246 249 254 252 249 245 238 228 215 206 204 198 189 183 177 181 181 184 196 186 176 170 165 172 184 194 201 205 200 191 199 198 201 192 191 174 169 162 167 176 188 182 159 209 165 180 181 178 181 172 179
51 55 56 60 58 51 40 39 24 14 357 344 336 329 318 313 308 301 300 302 296 289 279 269 262 248 246 251 253 252 248 243 243 243 245 249 253 255 249 254 248 235 214 213 207 200 195 187 184 171 168 192 194 188 181 176 174 181 196 196 198 195 187 191 213 203 197 194 189 183 183 179 176 185 185 187 182 169 167 155 174 192 176 154 186
53 52 51 51 51 47 40 33 26 18 14 6 354 345 334 326 328 327 315 315 319 322 321 312 302 294 291 284 272 259 249 241 239 245 243 244 248 263 261 253 251 240 226 215 211 204 196 180 185 183 191 188 190 186 185 182 186 194 188 183 198 189 184 192 209 198 196 196 195 198 199 198 190 199 176 189 191 174 170 154 169 181 179 185 153
57 56 55 50 47 43 37 31 27 22 18 17 13 9 10 0 348 339 334 334 341 350 3 355 330 307 292 279 276 272 260 251 252 249 242 234 234 264 262 246 248 244 234 225 215 203 199 184 197 197 193 193 186 178 188 194 195 201 187 184 179 191 201 201 198 200 197 196 192 197 203 203 208 200 184 180 175 165 175 155 151 173 181 172 161
63 64 61 58 54 52 46 39 30 21 17 21 14 19 19 16 16 10 349 327 319 301 299 296 292 281 273 287 287 275 257 251 253 251 242 232 232 240 239 242 240 240 233 225 211 190 193 192 187 180 188 178 178 171 188 204 201 202 191 183 189 197 197 198 203 196 196 201 187 188 210 202 202 186 183 174 173 177 176 164 151 169 184 174 161
56 54 50 49 50 46 40 34 29 20 17 18 18 16 15 16 14 13 351 336 321 304 294 290 280 265 273 284 271 240 267 268 264 262 256 245 249 261 258 250 246 237 233 215 201 192 190 172 182 181 178 175 180 194 198 201 193 184 190 199 183 199 197 197 197 198 197 192 190 198 200 202 193 191 191 195 186 190 179 166 164 161 169 186 179
45 48 47 44 39 40 37 34 28 22 18 17 18 20 21 19 12 9 0 350 338 327 318 308 298 293 293 288 277 259 208 215 246 255 251 237 240 253 254 237 241 240 231 216 207 195 189 198 195 192 183 180 184 196 190 187 182 183 182 200 195 178 184 198 180 206 212 186 192 185 215 208 190 187 196 193 200 188 180 170 183 179 168 172 193
47 45 43 44 44 41 38 35 31 25 23 20 17 14 17 21 17 21 20 12 2 346 330 318 304 299 295 268 243 232 216 211 215 223 229 220 228 236 252 244 243 237 219 215 206 200 197 199 195 192 190 189 188 184 180 183 178 187 198 198 194 180 193 199 205 203 204 181 191 195 214 206 184 180 195 189 189 188 191 187 195 196 198 167 171
48 47 47 44 42 38 36 34 28 26 26 20 16 7 7 11 14 18 16 8 359 351 337 326 317 307 301 288 244 206 196 201 201 205 204 208 208 233 278 261 242 235 221 205 194 196 195 193 192 187 188 182 178 171 178 173 172 174 148 217 215 199 193 190 193 208 196 192 169 195 198 198 175 180 187 187 184 189 195 195 201 205 204 204 167
45 47 46 46 44 41 39 32 25 20 18 17 7 4 4 8 9 10 7 359 350 346 338 330 326 314 311 305 289 254 226 206 199 207 198 198 207 198 219 250 258 232 230 193 185 185 167 187 193 190 180 172 162 174 169 157 162 171 183 193 197 195 189 187 190 192 185 179 176 179 184 178 169 182 176 182 185 188 199 197 197 204 196 220 182
43 44 48 49 48 44 40 32 24 23 20 12 6 5 8 6 6 6 1 356 345 340 336 332 330 323 319 314 300 288 263 240 218 200 188 198 194 185 183 225 241 238 215 242 197 195 192 186 191 188 177 160 171 173 165 165 168 179 187 195 181 191 183 174 168 180 173 180 174 175 174 172 168 176 180 180 185 190 194 197 191 195 187 194 190
46 43 36 39 37 36 35 24 19 16 19 12 7 5 2 5 2 357 354 349 345 339 333 331 327 326 325 316 307 290 267 257 241 217 198 188 181 174 170 189 219 226 208 209 211 202 195 191 183 180 172 167 165 161 168 162 163 176 193 187 173 184 184 171 168 168 175 175 175 172 169 166 166 178 172 173 181 180 185 196 192 186 182 183 190
39 35 32 28 24 22 24 23 21 21 16 10 5 2 2 7 1 356 350 353 344 339 332 324 326 334 330 319 301 280 247 218 230 224 216 195 176 178 168 191 210 218 206 204 203 200 196 181 178 177 172 159 158 159 169 164 172 178 186 175 172 182 184 171 174 173 164 175 171 177 170 162 176 177 168 176 175 180 186 190 188 190 188 187 204
34 35 34 30 27 24 24 24 22 19 14 8 4 2 359 4 4 357 353 350 346 338 331 329 330 337 332 315 288 270 268 238 206 208 203 194 171 160 175 209 222 207 207 210 203 190 190 183 177 173 167 159 160 158 167 174 176 177 171 170 175 179 179 173 183 180 175 167 174 176 173 165 162 170 171 179 173 185 189 191 187 188 189 186 192
41 39 39 36 31 28 26 21 17 11 9 4 0 359 358 359 358 353 353 349 345 340 335 338 340 337 333 315 292 268 267 259 238 222 208 185 151 157 165 195 213 213 204 213 190 177 199 188 174 168 166 163 159 156 160 168 170 171 169 167 172 175 181 186 185 177 168 174 181 179 170 166 170 174 177 175 185 184 190 188 192 182 187 184 188
43 38 33 31 30 27 24 20 17 11 5 2 1 360 357 357 357 349 343 342 339 342 343 342 341 346 342 341 310 273 245 245 237 233 233 211 182 181 187 195 178 169 150 125 98 93 253 257 209 165 160 159 159 156 157 161 163 167 170 164 166 169 177 176 169 161 163 176 176 182 165 173 179 178 173 180 181 185 186 184 190 181 191 181 187
40 35 32 30 27 22 20 16 10 7 3 1 3 1 359 357 357 349 344 343 344 347 351 353 357 354 350 348 337 306 260 246 247 240 229 220 209 198 188 182 177 166 163 154 148 144 153 235 224 157 150 150 151 155 160 162 162 164 158 150 149 150 153 155 153 160 166 169 177 172 167 177 183 184 177 176 179 183 183 188 187 188 186 180 192
40 37 37 32 26 20 14 8 4 5 7 7 3 358 353 354 354 351 349 347 353 355 357 360 359 1 355 351 343 324 305 277 261 255 243 230 219 202 184 175 179 168 156 152 150 160 149 200 229 138 143 143 143 147 148 151 153 153 149 143 139 140 140 134 138 143 149 161 169 171 176 179 187 190 176 176 175 175 182 186 186 179 189 179 186
47 45 37 32 25 18 12 5 6 5 8 6 359 0 353 353 354 353 351 353 4 3 3 3 4 2 355 347 338 333 315 302 288 274 253 238 224 202 186 175 174 158 157 152 153 148 137 143 125 122 96 114 131 138 141 146 146 145 142 142 145 141 134 126 124 125 129 139 154 164 144 136 157 170 191 167 167 168 165 187 180 191 189 189 195
45 45 36 29 22 11 4 5 6 8 7 3 360 359 356 358 0 356 351 351 353 9 12 9 8 4 354 342 338 340 337 315 300 284 261 242 229 198 178 172 167 148 123 113 92 72 115 123 125 110 107 106 130 136 151 150 143 141 140 146 148 145 140 132 125 119 118 118 121 92 94 106 79 76 67 70 69 73 175 174 171 187 183 186 187
43 41 34 27 19 8 7 6 7 7 6 4 359 357 356 1 358 355 353 348 352 7 17 13 10 5 355 350 343 344 344 337 325 305 259 241 234 190 156 163 160 142 126 108 113 124 141 123 124 107 105 101 87 70 20 39 148 147 147 139 136 139 141 137 131 123 112 103 97 87 76 73 72 79 80 82 82 73 47 51 138 164 163 166 171
42 38 30 23 20 15 8 7 7 6 6 360 355 355 357 358 356 355 356 356 3 4 20 19 14 3 1 1 0 354 1 10 357 26 34 34 47 46 40 55 57 76 88 94 103 99 81 74 96 110 98 85 69 42 359 333 126 135 139 141 141 137 138 138 134 129 122 114 105 102 105 104 101 95 83 80 82 76 73 68 53 42 27 37 169
37 35 33 30 25 16 9 1 1 5 6 4 358 359 2 356 353 357 355 360 7 10 12 20 18 10 7 12 11 9 13 22 38 56 69 69 80 68 41 57 66 63 66 67 61 67 73 71 82 85 75 63 59 10 348 216 143 136 137 134 135 139 141 137 130 123 120 115 111 106 101 95 94 102 108 96 79 80 86 81 75 67 60 50 34
31 33 36 31 22 13 7 358 3 6 5 6 4 4 4 354 356 359 1 5 10 11 13 20 20 15 12 15 18 19 25 32 35 33 38 49 60 62 42 54 68 61 68 70 59 63 79 81 82 80 70 55 52 12 56 98 136 130 128 133 135 140 139 130 124 118 116 118 119 114 110 92 81 89 114 109 108 98 89 94 96 88 73 66 61
37 35 32 17 7 8 11 6 3 5 4 357 11 7 356 359 1 10 11 7 9 11 17 17 20 18 15 17 23 26 32 38 35 28 29 43 50 55 43 37 55 54 61 61 61 46 40 66 81 88 78 62 52 23 64 80 89 130 132 120 132 126 124 122 121 118 119 126 129 128 124 116 109 82 97 124 131 130 133 128 112 94 87 72 59
32 28 17 5 353 8 13 13 9 360 4 12 14 7 359 12 14 18 15 14 15 17 18 18 21 14 12 17 24 31 32 35 38 35 34 39 42 46 60 50 46 49 44 51 45 46 32 29 27 60 81 70 51 28 67 82 88 76 82 119 118 110 104 97 93 98 104 106 113 113 114 122 126 121 77 2 128 129 122 115 108 100 93 81 64
16 5 352 353 6 19 16 1 351 7 17 21 16 4 11 13 19 22 16 18 17 21 21 18 17 18 16 19 25 33 37 34 33 38 44 44 38 35 37 48 76 72 54 54 55 49 44 47 36 36 67 77 48 24 45 67 77 83 67 88 91 93 97 99 98 99 97 92 83 82 104 111 119 121 113 359 10 116 122 113 104 103 104 91 72
27 5 352 349 358 20 18 359 5 23 25 18 5 7 16 21 25 19 16 22 25 26 16 15 23 20 12 17 27 34 40 39 36 39 44 46 41 35 27 17 69 67 72 62 53 47 38 45 48 48 48 54 48 22 43 57 50 50 79 78 64 69 88 91 88 95 71 63 51 46 65 101 113 119 138 190 189 186 121 117 116 117 110 99 89
39 13 9 358 357 17 26 25 15 27 23 9 4 9 22 32 28 18 18 26 32 28 20 15 14 23 21 16 25 36 44 48 44 41 43 45 45 43 41 25 61 89 69 67 69 54 49 41 41 40 37 53 42 22 36 67 72 56 58 71 70 70 65 58 65 50 54 55 47 36 31 72 91 73 343 183 175 153 123 125 126 125 122 112 98
37 25 12 2 358 5 17 24 22 26 5 360 358 7 26 39 31 21 22 31 29 23 20 14 8 16 32 30 30 39 45 50 50 43 40 43 44 45 40 44 45 62 81 68 72 70 61 50 41 37 37 44 41 23 20 43 66 79 81 80 88 94 85 78 82 73 55 66 66 51 41 32 47 48 45 43 32 92 113 104 112 104 98 98 90
39 35 18 1 349 17 28 26 26 15 1 4 2 16 34 38 29 26 32 31 24 17 11 15 20 21 38 42 40 43 46 48 48 43 41 42 42 46 42 45 48 49 63 65 65 66 64 54 47 41 43 41 39 28 18 23 50 55 71 99 89 99 103 95 76 77 88 64 65 65 46 34 38 42 49 52 51 50 87 106 113 106 107 109 121
43 27 356 33 33 33 33 32 27 20 21 9 10 29 37 32 28 33 35 25 21 20 20 25 26 31 39 48 46 46 48 48 49 50 52 50 43 45 47 50 50 52 54 57 64 69 65 56 51 47 47 47 40 33 27 22 40 49 48 63 78 83 98 97 93 85 78 87 76 60 59 25 37 47 55 59 62 61 67 79 74 88 82 124 131
70 52 43 49 42 34 31 34 28 26 23 18 29 46 38 34 36 33 25 20 26 30 31 36 38 36 36 37 44 50 48 48 46 51 57 55 50 48 50 51 52 50 52 50 55 60 64 61 54 42 45 43 41 32 31 25 37 45 49 47 60 44 58 89 75 62 59 58 51 44 45 28 46 56 57 61 64 65 66 77 80 97 105 106 98
52 52 39 54 59 47 43 37 26 24 16 11 37 47 41 38 40 22 17 25 34 41 46 45 42 39 36 42 38 45 52 45 46 46 55 55 47 51 49 46 47 51 47 46 46 44 53 57 53 47 43 43 38 39 34 33 37 45 48 54 53 50 54 67 87 77 67 70 67 67 60 54 65 65 64 61 62 70 73 74 91 92 99 101 94
59 63 47 57 70 57 52 38 30 25 21 22 35 49 46 47 37 14 21 32 40 42 48 52 49 42 36 41 45 45 44 41 39 45 50 51 49 49 54 53 50 50 53 52 46 41 53 49 46 37 32 32 34 33 31 31 32 38 46 51 55 53 53 66 67 82 80 98 105 89 85 76 82 83 78 71 62 56 71 74 80 96 118 116 99
53 49 44 58 63 62 60 52 38 30 22 24 27 49 50 49 31 23 30 40 44 45 45 48 47 45 43 42 48 49 45 37 33 41 48 43 42 39 51 38 56 61 59 57 44 41 48 49 48 44 34 32 25 29 33 28 27 31 39 46 50 50 50 64 82 87 95 85 91 97 94 87 86 85 86 84 74 67 70 72 67 55 69 91 87
52 46 43 63 69 62 58 55 47 33 30 28 29 38 48 42 33 28 32 43 48 49 49 48 46 43 40 41 46 49 48 41 37 31 41 45 51 41 47 44 53 56 50 59 60 51 42 45 48 33 28 26 28 30 27 26 23 23 31 41 61 70 74 72 79 82 81 82 81 84 81 70 60 58 74 69 73 81 73 65 50 41 59 60 75
51 22 37 56 57 58 51 47 44 29 27 29 35 39 38 35 33 32 36 40 45 48 50 46 45 46 43 43 45 44 51 47 48 48 40 37 42 46 43 36 29 36 48 57 49 44 45 38 44 35 28 25 31 31 26 22 25 25 23 9 56 69 74 84 84 85 76 71 65 68 84 84 87 77 78 87 91 87 66 52 52 45 45 41 45
50 26 40 50 49 54 47 43 38 25 35 36 37 33 28 29 32 33 48 51 49 44 48 49 47 46 44 43 52 43 48 55 48 49 46 37 36 41 50 42 31 16 25 36 49 49 43 33 26 24 33 40 29 27 22 10 7 8 12 41 38 63 74 81 86 85 87 87 108 108 89 81 81 78 73 65 58 57 59 62 65 73 74 75 84
49 39 41 45 38 45 46 47 37 28 37 44 41 36 30 31 28 30 45 56 52 49 50 51 51 53 51 44 47 45 43 46 56 56 52 40 26 28 46 59 43 26 15 12 22 31 26 17 3 1 19 31 32 26 10 334 338 350 356 40 71 71 69 83 97 113 107 75 71 59 59 62 63 74 67 65 64 63 56 55 61 82 103 86 72
70 61 60 58 47 47 47 44 36 34 42 45 42 39 36 35 34 32 42 56 52 50 50 47 46 47 46 49 50 49 44 43 42 46 58 62 51 47 37 51 57 42 50 47 46 41 3 339 352 23 21 5 357 14 30 60 53 49 62 67 68 64 62 78 70 62 87 87 63 69 47 49 48 56 67 63 59 62 73 74 67 57 67 70 72
96 86 71 65 57 53 51 44 36 39 46 47 47 38 38 34 36 41 47 57 61 63 58 54 47 47 36 42 50 50 47 49 42 39 44 54 61 59 56 57 63 62 57 53 52 47 38 31 23 38 57 33 41 64 70 63 62 59 55 56 57 54 44 32 346 118 51 61 78 83 67 54 51 51 57 56 56 70 77 90 84 71 65 68 69